Guaymas, Mexico

4:02 PM MST on March 26, 2017 (GMT -0700)
Gen Jose Ma Yanez International

Weather History for MMGM - October, 2013

Change the Weather History Date:

Sunday, October 6, 2013

  Actual Average Record
Temperature  
Mean Temperature 86 °F -  
Max Temperature 98 °F 87 °F 98 °F (1999)
Min Temperature 73 °F 65 °F 64 °F (2002)
Cooling Degree Days 20    
Growing Degree Days 36 (Base 50)    
Moisture  
Dew Point 53 °F    
Average Humidity 30    
Maximum Humidity 49    
Minimum Humidity 9    
Precipitation  
Precipitation 0.00 in - - ()
Sea Level Pressure  
Sea Level Pressure 29.83 in    
Wind  
Wind Speed 6 mph ()    
Max Wind Speed 16 mph    
Max Gust Speed -    
Visibility 10.0 miles    
Events      
Averages and records for this station are not official NWS values.
T = Trace of Precipitation, MM = Missing Value Source: Averaged Metar Reports

Daily Weather History Graph

Daily Weather History Graph

Search for Another Location

Airport or City:

Trip Planner

Search our weather history database for the weather conditions in past years. The results will help you decide how hot, cold, wet, or windy it might be!

Date:

Astronomy

Oct. 06, 2013 Rise Set
Actual Time 6:19 AM MST 6:03 PM MST
Civil Twilight 5:55 AM MST 6:27 PM MST
Nautical Twilight 5:28 AM MST 6:54 PM MST
Astronomical Twilight 5:01 AM MST 7:21 PM MST
Moon 7:56 AM MST (10/6) 7:18 PM MST (10/6)
Length of Visible Light 12h 31m
Length of Day
11h 44m
Waxing Crescent, 4% of the Moon is Illuminated
Oct 6
Waxing Crescent
Oct 11
First Quarter
Oct 18
Full
Oct 26
Last Quarter
Nov 3
New

Hourly Weather History & Observations

Time (MST) Temp. Heat Index Dew Point Humidity Pressure Visibility Wind Dir Wind Speed Gust Speed Precip Events Conditions
2:00 AM 74 °F - 53 °F 37% 29.91 in - WNW 8.9 mph - -  
5:00 AM 73 °F - 51 °F 35% 29.89 in - NW 6.7 mph - -  
6:57 AM 73.4 °F - 51.8 °F 47% 29.85 in 10.0 mi Calm Calm - N/A   Clear
7:45 AM 75.2 °F - 51.8 °F 44% 29.85 in 10.0 mi Calm Calm - N/A   Clear
8:00 AM 77 °F - 50 °F 28% 29.91 in - NNW 4.5 mph - -  
8:50 AM 82.4 °F - 46.4 °F 28% 29.86 in 10.0 mi Calm Calm - N/A   Clear
9:41 AM 87.8 °F - 37.4 °F 17% 29.85 in 10.0 mi NNW 11.5 mph - N/A   Clear
10:40 AM 91.4 °F - 41.0 °F 17% 29.84 in 10.0 mi NNW 11.5 mph - N/A   Clear
11:00 AM 95 °F - 43 °F 9% 29.90 in - WNW 4.5 mph - -  
11:43 AM 95.0 °F - 44.6 °F 18% 29.82 in 10.0 mi West 4.6 mph - N/A   Clear
12:41 PM 95.0 °F - 51.8 °F 23% 29.80 in 10.0 mi SSW 10.4 mph - N/A   Clear
1:43 PM 96.8 °F - 50.0 °F 20% 29.76 in 10.0 mi SSW 11.5 mph - N/A   Clear
2:00 PM 98 °F - 56 °F 16% 29.81 in - SW 8.9 mph - -  
2:41 PM 93.2 °F 91.9 °F 57.2 °F 30% 29.75 in 10.0 mi WSW 13.8 mph - N/A   Clear
3:41 PM 93.2 °F 92.6 °F 59.0 °F 32% 29.75 in 10.0 mi WSW 13.8 mph - N/A   Clear
4:40 PM 91.4 °F 94.0 °F 66.2 °F 43% 29.75 in 10.0 mi SW 16.1 mph - N/A   Clear
5:40 PM 89.6 °F 93.4 °F 68.0 °F 49% 29.75 in 10.0 mi SW 12.7 mph - N/A   Clear
6:42 PM 87.8 °F 89.4 °F 64.4 °F 46% 29.77 in 10.0 mi SW 5.8 mph - N/A   Clear
8:00 PM 85 °F - 59 °F 32% 29.85 in - WNW 8.9 mph - -  
11:00 PM 81 °F - 53 °F 28% 29.86 in - NW 8.9 mph - -